This is the latest recevied weather packets stored in our database for station/object K5EAA-13. If no packets are shown the sender has not sent any weather packets the latest 10 day(s).
| Time | Temp. | Humidity | Pressure | Rain* | Wind** | Luminosity | Snow |
|---|---|---|---|---|---|---|---|
| 1787635770 | 32.78° C | 36% | 1012.5 hPa | 0 mm | - | 0 W/m² | - |
| 1787635466 | 32.78° C | 36% | 1012.5 hPa | 0 mm | - | 0 W/m² | - |
| 1787635166 | 32.78° C | 36% | 1012.4 hPa | 0 mm | - | 0 W/m² | - |
| 1787634861 | 32.78° C | 36% | 1012.5 hPa | 0 mm | - | 0 W/m² | - |
| 1787634556 | 32.78° C | 36% | 1012.5 hPa | 0 mm | - | 0 W/m² | - |
| 1787634252 | 32.78° C | 36% | 1012.6 hPa | 0 mm | - | 0 W/m² | - |
| 1787633947 | 32.78° C | 36% | 1012.6 hPa | 0 mm | - | 0 W/m² | - |
| 1787633643 | 32.78° C | 36% | 1012.3 hPa | 0 mm | - | 0 W/m² | - |
| 1787633340 | 32.78° C | 36% | 1012.6 hPa | 0 mm | - | 0 W/m² | - |
| 1787633035 | 32.78° C | 37% | 1012.7 hPa | 0 mm | - | 0 W/m² | - |
| 1787632731 | 32.78° C | 39% | 1012.6 hPa | 0 mm | - | 0 W/m² | - |
| 1787632427 | 32.78° C | 39% | 1012.8 hPa | 0 mm | - | 0 W/m² | - |
| 1787632126 | 32.78° C | 39% | 1012.8 hPa | 0 mm | - | 0 W/m² | - |
| 1787631822 | 32.78° C | 39% | 1012.7 hPa | 0 mm | - | 0 W/m² | - |
| 1787631518 | 32.78° C | 40% | 1012.9 hPa | 0 mm | - | 0 W/m² | - |
| 1787631213 | 32.78° C | 37% | 1012.7 hPa | 0 mm | - | 0 W/m² | - |
| 1787630913 | 32.78° C | 41% | 1013 hPa | 0 mm | - | 0 W/m² | - |
| 1787630609 | 32.78° C | 42% | 1012.7 hPa | 0 mm | - | 0 W/m² | - |
| 1787630308 | 32.78° C | 40% | 1012.8 hPa | 0 mm | - | 0 W/m² | - |
| 1787630005 | 33.33° C | 39% | 1012.9 hPa | 0 mm | - | 0 W/m² | - |
| 1787629700 | 33.33° C | 39% | 1012.8 hPa | 0 mm | - | 0 W/m² | - |
| 1787629395 | 33.33° C | 39% | 1013 hPa | 0 mm | - | 0 W/m² | - |
| 1787629092 | 33.33° C | 40% | 1012.8 hPa | 0 mm | - | 0 W/m² | - |
| 1787628791 | 33.33° C | 41% | 1012.8 hPa | 0 mm | - | 0 W/m² | - |
| 1787628488 | 33.33° C | 40% | 1012.8 hPa | 0 mm | - | 0 W/m² | - |
* Rain latest hour (hover to see other rain measurements)
** Current wind speed in m/s (hover to see current wind gust speed)